Skip Page Navigation
NASA JPL Caltech
NASA Logo - Jet Propulsion Laboratory + View the NASA Portal
+ Center for Near-Earth Object Studies
JPL Home Earth Solar System Stars & Galaxies Technology
JPL Solar System Dynamics
BODIES ORBITS EPHEMERIDES TOOLS PHYSICAL DATA DISCOVERY FAQ SITE MAP
JPL Small-Body Database Browser
Search: [ help ]  
215276 (2001 QT32)
Classification: Main-belt Asteroid          SPK-ID: 2215276
Ephemeris | Orbit Diagram | Orbital Elements | Mission Design | Physical Parameters | Discovery Circumstances | Close-Approach Data ]

[ show orbit diagram ]
Orbital Elements at Epoch 2459000.5 (2020-May-31.0) TDB
Reference: JPL 15 (heliocentric ecliptic J2000)
 Element Value Uncertainty (1-sigma)   Units 
e .3222409844462533 6.0859e-08  
a 2.602102781743602 1.0969e-08 au
q 1.76359861972421 1.5462e-07 au
i 4.133951663152224 5.8807e-06 deg
node 200.7420151049218 6.6258e-05 deg
peri 141.8285240610012 6.6757e-05 deg
M 160.1906938774266 8.9146e-06 deg
tp 2458318.287175578937
(2018-Jul-18.78717558)
3.6153e-05 TDB
period 1533.151588565477
4.20
9.6942e-06
2.654e-08
d
yr
n .234810440588488 1.4847e-09 deg/d
Q 3.440606943762994 1.4503e-08 au
  Orbit Determination Parameters
   # obs. used (total)      346  
   data-arc span      9568 days (26.20 yr)  
   first obs. used      1993-11-21  
   last obs. used      2020-02-01  
   planetary ephem.      DE431  
   SB-pert. ephem.      SB431-N16  
   condition code      0  
   norm. resid. RMS      .54241  
   source      ORB  
   producer      Otto Matic  
   solution date      2020-Feb-25 03:21:22  

Additional Information
 Earth MOID = .758182 au 
 Jupiter MOID = 1.9984 au 
 T_jup = 3.335 
[ show covariance matrix ]

Ephemeris | Orbit Diagram | Orbital Elements | Mission Design | Physical Parameters | Discovery Circumstances | Close-Approach Data ]

Physical Parameter Table
Parameter Symbol Value Units Sigma Reference Notes
absolute magnitude H 16.8   n/a MPO459960  

215276 (2001 QT32)          Discovered 2001-Aug-17 by NEAT at Palomar
Reference: 20090607/Numbers.arcLast Updated: 2009-06-08

[ hide close-approach data ]
Close-Approach Data   ...sorted by Date/Time (TDB)
Date/Time (TDB) Time Uncertainty
(days_HH:MM)
Body Nominal Distance (au) Minimum Distance (au) Maximum Distance (au) V-relative (km/s) V-infinity (km/s) JD (TDB) Time Uncertainty (minutes) Semi-major axis (km) Semi-minor axis (km) range-LOV angle (deg) N-sigma BP Orbit Ref. Reference Modified
2003-Aug-21 04:41 < 00:01 Jupiter 1.98700856445012 1.987008020773 1.98700910812726 0.775715481594951 n/a 2452872.695192384 0.296954172069426 57.6803133420097 26.3696014562201 -82.9494611958693 11202448.2823222 F 15 CATAB v2.0f-lin.ifort 2020-Feb-25 03:21:34 2020-Feb-25 03:21
2075-Feb-13 05:30 00:01 Jupiter 1.98128945343372 1.98128893124469 1.98128997562292 0.830313338592627 n/a 2478981.729384412 1.0790447078634 77.9450265965298 23.8286657697059 -81.8663420954591 12322277.9055692 F 15 CATAB v2.0f-lin.ifort 2020-Feb-25 03:21:34 2020-Feb-25 03:21
2146-Aug-08 04:33 00:02 Jupiter 1.9939766320361 1.99397619728369 1.99397706678976 0.95577058878266 0.252816598592786 2505089.689504505 2.29164581440738 17065.1998894454 969.712800633968 -1.19030490319145 891448.926777614 T 15 CATAB v2.0f-lin.ifort 2020-Feb-25 03:21:34 2020-Feb-25 03:21
Ephemeris | Orbit Diagram | Orbital Elements | Mission Design | Physical Parameters | Discovery Circumstances | Close-Approach Data ]
ABOUT SSD CREDITS/AWARDS PRIVACY/COPYRIGHT GLOSSARY LINKS
FirstGov 2020-Jul-04 05:53 UT
(server date/time)  
NASA Home Page
Site Manager:   Ryan S. Park
Webmaster  Alan B. Chamberlin